• En España
  • Lista de países
  • Para 7 días
  • Temperatura del agua
  • Mapa Satelital
  • El tiempo en el mapa
  • Informadores
  • user-avatar
    Iniciar sesión

    Tiempo cada hora Plovdiv

    Hoy, 23 Septiembre, Domingo

    Tiempo Temperatura Precipitaciones Viento Presión Humedad
    00:00 +20°C° 0 mm 2 mps 740 mmHg 53%
    01:00 +20°C° 0 mm 2 mps 740 mmHg 54%
    02:00 +20°C° 0 mm 2 mps 741 mmHg 54%
    03:00 +20°C° 0 mm 2 mps 741 mmHg 55%
    04:00 +19°C° 0 mm 2 mps 741 mmHg 56%
    05:00 +19°C° 0 mm 2 mps 741 mmHg 57%
    06:00 +22°C° 0 mm 1 mps 741 mmHg 54%
    07:00 +23°C° 0 mm 1 mps 741 mmHg 52%
    08:00 +24°C° 0 mm 1 mps 741 mmHg 50%
    09:00 +27°C° 0 mm 1 mps 742 mmHg 44%
    10:00 +29°C° 0 mm 1 mps 742 mmHg 39%
    11:00 +31°C° 0 mm 1 mps 742 mmHg 34%
    12:00 +32°C° 0 mm 1 mps 742 mmHg 33%
    13:00 +32°C° 0 mm 1 mps 742 mmHg 31%
    14:00 +34°C° 0 mm 2 mps 741 mmHg 30%
    15:00 +32°C° 0 mm 2 mps 741 mmHg 32%
    16:00 +32°C° 0 mm 2 mps 740 mmHg 34%
    17:00 +31°C° 0 mm 2 mps 740 mmHg 36%
    18:00 +29°C° 0 mm 1 mps 740 mmHg 42%
    19:00 +27°C° 0 mm 1 mps 740 mmHg 47%
    20:00 +24°C° 0 mm 1 mps 740 mmHg 52%
    21:00 +24°C° 0 mm 1 mps 740 mmHg 54%
    22:00 +23°C° 0 mm 1 mps 740 mmHg 55%
    23:00 +23°C° 0 mm 1 mps 740 mmHg 57%

    Mañana, 24 Septiembre, Lunes

    Tiempo Temperatura Precipitaciones Viento Presión Humedad
    00:00 +23°C° 0 mm 1 mps 740 mmHg 58%
    01:00 +22°C° 0 mm 1 mps 740 mmHg 59%
    02:00 +22°C° 0 mm 1 mps 739 mmHg 61%
    03:00 +21°C° 0 mm 1 mps 739 mmHg 62%
    04:00 +21°C° 0 mm 1 mps 738 mmHg 63%
    05:00 +21°C° 0 mm 1 mps 738 mmHg 63%
    06:00 +22°C° 0 mm 1 mps 738 mmHg 60%
    07:00 +23°C° 0 mm 1 mps 738 mmHg 57%
    08:00 +25°C° 0 mm 1 mps 738 mmHg 53%
    09:00 +27°C° 0 mm 1 mps 737 mmHg 46%
    10:00 +30°C° 0 mm 1 mps 737 mmHg 40%
    11:00 +32°C° 0 mm 1 mps 737 mmHg 33%
    12:00 +34°C° 0 mm 2 mps 737 mmHg 31%
    13:00 +34°C° 0 mm 2 mps 736 mmHg 29%
    14:00 +35°C° 0 mm 3 mps 736 mmHg 27%
    15:00 +34°C° 0 mm 3 mps 736 mmHg 31%
    16:00 +32°C° 0 mm 4 mps 736 mmHg 35%
    17:00 +30°C° 0 mm 5 mps 736 mmHg 38%
    18:00 +27°C° 0 mm 4 mps 737 mmHg 46%
    19:00 +23°C° 0 mm 4 mps 738 mmHg 53%
    20:00 +20°C° 0 mm 4 mps 739 mmHg 61%
    21:00 +19°C° 0 mm 4 mps 740 mmHg 62%
    22:00 +18°C° 0 mm 4 mps 741 mmHg 64%
    23:00 +17°C° 0 mm 4 mps 742 mmHg 65%

    Pasado mañana, 25 Septiembre, Martes

    Tiempo Temperatura Precipitaciones Viento Presión Humedad
    00:00 +17°C° 0 mm 4 mps 742 mmHg 65%
    01:00 +15°C° 0 mm 4 mps 742 mmHg 65%
    02:00 +15°C° 0 mm 4 mps 742 mmHg 64%
    03:00 +14°C° 0 mm 4 mps 743 mmHg 64%
    04:00 +14°C° 0 mm 4 mps 743 mmHg 63%
    05:00 +13°C° 0 mm 4 mps 744 mmHg 62%
    06:00 +13°C° 0 mm 4 mps 744 mmHg 59%
    07:00 +13°C° 0 mm 4 mps 745 mmHg 56%
    08:00 +13°C° 0 mm 4 mps 745 mmHg 53%
    09:00 +14°C° 0 mm 4 mps 745 mmHg 45%
    10:00 +17°C° 0 mm 4 mps 745 mmHg 37%
    11:00 +18°C° 0 mm 4 mps 746 mmHg 29%
    12:00 +19°C° 0 mm 4 mps 745 mmHg 27%
    13:00 +19°C° 0 mm 4 mps 745 mmHg 25%
    14:00 +20°C° 0 mm 4 mps 745 mmHg 24%
    15:00 +19°C° 0 mm 4 mps 745 mmHg 25%
    16:00 +18°C° 0 mm 4 mps 745 mmHg 27%
    17:00 +17°C° 0 mm 4 mps 745 mmHg 29%
    18:00 +14°C° 0 mm 4 mps 745 mmHg 33%
    19:00 +12°C° 0 mm 3 mps 746 mmHg 36%
    20:00 +10°C° 0 mm 3 mps 747 mmHg 40%
    21:00 +10°C° 0 mm 2 mps 748 mmHg 41%
    22:00 +9°C° 0 mm 2 mps 748 mmHg 42%
    23:00 +9°C° 0 mm 2 mps 748 mmHg 44%

    26 Septiembre, Miércoles

    Tiempo Temperatura Precipitaciones Viento Presión Humedad
    00:00 +8°C° 0 mm 2 mps 749 mmHg 47%
    01:00 +8°C° 0 mm 2 mps 749 mmHg 50%
    02:00 +7°C° 0 mm 2 mps 749 mmHg 54%
    03:00 +7°C° 0 mm 2 mps 749 mmHg 57%
    04:00 +7°C° 0 mm 2 mps 750 mmHg 59%
    05:00 +6°C° 0 mm 2 mps 750 mmHg 62%
    06:00 +7°C° 0 mm 2 mps 750 mmHg 59%
    07:00 +8°C° 0 mm 2 mps 750 mmHg 55%
    08:00 +9°C° 0 mm 2 mps 751 mmHg 52%
    09:00 +12°C° 0 mm 2 mps 751 mmHg 47%
    10:00 +13°C° 0 mm 3 mps 751 mmHg 42%
    11:00 +14°C° 0 mm 3 mps 751 mmHg 37%
    12:00 +16°C° 0 mm 3 mps 750 mmHg 35%
    13:00 +16°C° 0 mm 3 mps 750 mmHg 33%
    14:00 +16°C° 0 mm 3 mps 749 mmHg 32%
    15:00 +16°C° 0 mm 3 mps 749 mmHg 33%
    16:00 +14°C° 0 mm 3 mps 749 mmHg 34%
    17:00 +14°C° 0 mm 3 mps 749 mmHg 35%
    18:00 +12°C° 0 mm 3 mps 749 mmHg 41%
    19:00 +10°C° 0 mm 2 mps 749 mmHg 47%
    20:00 +8°C° 0 mm 2 mps 750 mmHg 53%
    21:00 +8°C° 0 mm 2 mps 750 mmHg 56%
    22:00 +7°C° 0 mm 2 mps 750 mmHg 58%
    23:00 +6°C° 0 mm 2 mps 750 mmHg 60%

    27 Septiembre, Jueves

    Tiempo Temperatura Precipitaciones Viento Presión Humedad
    00:00 +6°C° 0 mm 2 mps 750 mmHg 60%
    01:00 +6°C° 0 mm 2 mps 750 mmHg 60%
    02:00 +6°C° 0 mm 2 mps 750 mmHg 60%
    03:00 +5°C° 0 mm 2 mps 749 mmHg 60%
    04:00 +5°C° 0 mm 2 mps 749 mmHg 60%
    05:00 +5°C° 0 mm 2 mps 749 mmHg 60%
    06:00 +6°C° 0 mm 2 mps 749 mmHg 54%
    07:00 +8°C° 0 mm 2 mps 749 mmHg 49%
    08:00 +9°C° 0 mm 2 mps 749 mmHg 43%
    09:00 +11°C° 0 mm 3 mps 748 mmHg 38%
    10:00 +13°C° 0 mm 3 mps 748 mmHg 32%
    11:00 +17°C° 0 mm 3 mps 748 mmHg 26%
    12:00 +17°C° 0 mm 3 mps 747 mmHg 24%
    13:00 +18°C° 0 mm 3 mps 746 mmHg 23%
    14:00 +19°C° 0 mm 3 mps 745 mmHg 21%
    15:00 +19°C° 0 mm 3 mps 745 mmHg 22%
    16:00 +18°C° 0 mm 3 mps 745 mmHg 24%
    17:00 +18°C° 0 mm 3 mps 744 mmHg 25%
    18:00 +14°C° 0 mm 3 mps 744 mmHg 30%
    19:00 +13°C° 0 mm 2 mps 745 mmHg 35%
    20:00 +10°C° 0 mm 2 mps 745 mmHg 39%
    21:00 +10°C° 0 mm 2 mps 745 mmHg 40%
    22:00 +9°C° 0 mm 2 mps 745 mmHg 40%
    23:00 +9°C° 0 mm 2 mps 745 mmHg 41%

    28 Septiembre, Viernes

    Tiempo Temperatura Precipitaciones Viento Presión Humedad
    00:00 +9°C° 0 mm 2 mps 745 mmHg 40%
    01:00 +9°C° 0 mm 2 mps 744 mmHg 40%
    02:00 +8°C° 0 mm 2 mps 744 mmHg 40%
    03:00 +8°C° 0 mm 2 mps 744 mmHg 40%
    04:00 +8°C° 0 mm 2 mps 744 mmHg 40%
    05:00 +8°C° 0 mm 2 mps 744 mmHg 40%
    06:00 +10°C° 0 mm 2 mps 744 mmHg 38%
    07:00 +12°C° 0 mm 2 mps 744 mmHg 36%
    08:00 +14°C° 0 mm 2 mps 744 mmHg 34%
    09:00 +16°C° 0 mm 2 mps 743 mmHg 32%
    10:00 +18°C° 0 mm 2 mps 743 mmHg 29%
    11:00 +20°C° 0 mm 2 mps 743 mmHg 27%
    12:00 +21°C° 0 mm 2 mps 742 mmHg 26%
    13:00 +21°C° 0 mm 3 mps 742 mmHg 25%
    14:00 +22°C° 0 mm 3 mps 741 mmHg 24%
    15:00 +22°C° 0 mm 3 mps 741 mmHg 27%
    16:00 +21°C° 0 mm 2 mps 740 mmHg 29%
    17:00 +20°C° 0 mm 2 mps 740 mmHg 31%
    18:00 +18°C° 0 mm 2 mps 740 mmHg 36%
    19:00 +16°C° 0 mm 2 mps 740 mmHg 41%
    20:00 +14°C° 0 mm 1 mps 740 mmHg 46%
    21:00 +13°C° 0 mm 1 mps 740 mmHg 49%
    22:00 +13°C° 0 mm 1 mps 740 mmHg 52%
    23:00 +13°C° 0 mm 1 mps 740 mmHg 55%
    Mostrar más